Time,TemperatureF,DewpointF,PressureIn,WindDirection,WindDirectionDegrees,WindSpeedMPH,WindSpeedGustMPH,Humidity,HourlyPrecipIn,Conditions,Clouds,dailyrainin,SoftwareType,DateUTC
2013-12-11 00:11:00,20.0,16.0,30.37,SE,135,0.0,1.0,86,0.00,,,0.00,,2013-12-11 07:11:00,
2013-12-11 00:21:00,20.0,16.0,30.37,SE,135,0.0,0.0,86,0.00,,,0.00,,2013-12-11 07:21:00,
2013-12-11 00:42:00,20.0,16.0,30.37,SE,135,0.0,0.0,85,0.00,,,0.00,,2013-12-11 07:42:00,
2013-12-11 00:52:00,20.0,16.0,30.38,South,180,0.0,2.0,85,0.00,,,0.00,,2013-12-11 07:52:00,
2013-12-11 01:11:00,20.0,16.0,30.37,East,90,0.0,0.0,85,0.00,,,0.00,,2013-12-11 08:11:00,
2013-12-11 01:21:00,21.0,17.0,30.37,SE,135,0.0,1.0,84,0.00,,,0.00,,2013-12-11 08:21:00,
2013-12-11 01:42:00,21.0,17.0,30.37,SE,135,0.0,0.0,84,0.00,,,0.00,,2013-12-11 08:42:00,
2013-12-11 01:52:00,20.0,16.0,30.37,SE,135,0.0,0.0,84,0.00,,,0.00,,2013-12-11 08:52:00,
2013-12-11 02:11:00,20.0,16.0,30.38,SE,135,0.0,0.0,84,0.00,,,0.00,,2013-12-11 09:11:00,
2013-12-11 02:22:00,20.0,16.0,30.38,SE,135,0.0,0.0,85,0.00,,,0.00,,2013-12-11 09:22:00,
2013-12-11 02:43:00,20.0,16.0,30.38,SE,135,0.0,0.0,85,0.00,,,0.00,,2013-12-11 09:43:00,
2013-12-11 02:54:00,20.0,16.0,30.39,SE,135,0.0,0.0,85,0.00,,,0.00,,2013-12-11 09:54:00,
2013-12-11 03:13:00,20.0,16.0,30.40,SE,135,0.0,0.0,85,0.00,,,0.00,,2013-12-11 10:13:00,
2013-12-11 03:22:00,20.0,16.0,30.40,SE,135,0.0,0.0,86,0.00,,,0.00,,2013-12-11 10:22:00,
2013-12-11 03:43:00,20.0,16.0,30.40,SE,135,0.0,0.0,86,0.00,,,0.00,,2013-12-11 10:43:00,
2013-12-11 03:52:00,20.0,16.0,30.40,SE,135,0.0,0.0,86,0.00,,,0.00,,2013-12-11 10:52:00,
2013-12-11 04:12:00,20.0,16.0,30.40,SE,135,0.0,0.0,86,0.00,,,0.00,,2013-12-11 11:12:00,
2013-12-11 04:22:00,20.0,16.0,30.40,SE,135,0.0,0.0,86,0.00,,,0.00,,2013-12-11 11:22:00,
2013-12-11 04:42:00,20.0,16.0,30.39,SE,135,0.0,0.0,86,0.00,,,0.00,,2013-12-11 11:42:00,
2013-12-11 04:52:00,20.0,17.0,30.39,SE,135,0.0,0.0,87,0.00,,,0.00,,2013-12-11 11:52:00,
2013-12-11 05:11:00,20.0,17.0,30.39,SE,135,0.0,0.0,87,0.00,,,0.00,,2013-12-11 12:11:00,
2013-12-11 05:21:00,20.0,17.0,30.39,SE,135,0.0,0.0,87,0.00,,,0.00,,2013-12-11 12:21:00,
2013-12-11 05:42:00,20.0,17.0,30.39,SE,135,0.0,0.0,87,0.00,,,0.00,,2013-12-11 12:42:00,
2013-12-11 05:52:00,20.0,17.0,30.39,SE,135,0.0,0.0,87,0.00,,,0.00,,2013-12-11 12:52:00,
2013-12-11 06:12:00,20.0,17.0,30.39,SE,135,0.0,0.0,87,0.00,,,0.00,,2013-12-11 13:12:00,
2013-12-11 06:22:00,20.0,17.0,30.39,SE,135,0.0,0.0,87,0.00,,,0.00,,2013-12-11 13:22:00,
2013-12-11 06:42:00,20.0,17.0,30.38,SE,135,0.0,0.0,87,0.00,,,0.00,,2013-12-11 13:42:00,
2013-12-11 06:52:00,20.0,17.0,30.39,South,180,0.0,0.0,87,0.00,,,0.00,,2013-12-11 13:52:00,
2013-12-11 07:11:00,20.0,17.0,30.38,SE,135,0.0,0.0,87,0.00,,,0.00,,2013-12-11 14:11:00,
2013-12-11 07:21:00,20.0,17.0,30.38,SE,135,0.0,1.0,87,0.00,,,0.00,,2013-12-11 14:21:00,
2013-12-11 07:42:00,20.0,16.0,30.37,SE,135,0.0,1.0,86,0.00,,,0.00,,2013-12-11 14:42:00,
2013-12-11 07:52:00,20.0,16.0,30.38,SE,135,0.0,1.0,85,0.00,,,0.00,,2013-12-11 14:52:00,
2013-12-11 08:11:00,20.0,16.0,30.38,SE,135,0.0,0.0,85,0.00,,,0.00,,2013-12-11 15:11:00,
2013-12-11 08:21:00,20.0,16.0,30.38,SE,135,0.0,1.0,85,0.00,,,0.00,,2013-12-11 15:21:00,
2013-12-11 08:43:00,20.0,16.0,30.38,SE,135,0.0,1.0,86,0.00,,,0.00,,2013-12-11 15:43:00,
2013-12-11 08:54:00,20.0,16.0,30.38,SE,135,0.0,0.0,86,0.00,,,0.00,,2013-12-11 15:54:00,
2013-12-11 09:12:00,20.0,16.0,30.40,SE,135,0.0,0.0,86,0.00,,,0.00,,2013-12-11 16:12:00,
2013-12-11 09:23:00,21.0,18.0,30.40,SE,135,0.0,1.0,87,0.00,,,0.00,,2013-12-11 16:23:00,
2013-12-11 09:43:00,22.0,18.0,30.39,South,180,0.0,1.0,86,0.00,,,0.00,,2013-12-11 16:43:00,
2013-12-11 09:53:00,23.0,19.0,30.40,SE,135,0.0,0.0,86,0.00,,,0.00,,2013-12-11 16:53:00,
2013-12-11 10:12:00,24.0,20.0,30.40,SE,135,0.0,0.0,85,0.00,,,0.00,,2013-12-11 17:12:00,
2013-12-11 10:22:00,25.0,21.0,30.42,SE,135,0.0,1.0,84,0.00,,,0.00,,2013-12-11 17:22:00,
2013-12-11 10:42:00,25.0,20.0,30.42,SE,135,0.0,5.0,82,0.00,,,0.00,,2013-12-11 17:42:00,
2013-12-11 10:52:00,26.0,21.0,30.42,SE,135,0.0,3.0,80,0.00,,,0.00,,2013-12-11 17:52:00,
2013-12-11 11:12:00,27.0,21.0,30.42,SE,135,0.0,2.0,79,0.00,,,0.00,,2013-12-11 18:12:00,
2013-12-11 11:22:00,28.0,22.0,30.42,SE,135,0.0,2.0,78,0.00,,,0.00,,2013-12-11 18:22:00,
2013-12-11 11:43:00,28.0,21.0,30.42,SE,135,2.0,3.0,76,0.00,,,0.00,,2013-12-11 18:43:00,
2013-12-11 11:52:00,28.0,21.0,30.41,SE,135,0.0,2.0,74,0.00,,,0.00,,2013-12-11 18:52:00,
2013-12-11 12:21:00,29.0,21.0,30.41,South,180,1.0,6.0,72,0.00,,,0.00,,2013-12-11 19:21:00,
2013-12-11 12:42:00,29.0,21.0,30.40,SE,135,1.0,4.0,72,0.00,,,0.00,,2013-12-11 19:42:00,
2013-12-11 12:52:00,29.0,21.0,30.39,SE,135,1.0,2.0,72,0.00,,,0.00,,2013-12-11 19:52:00,
2013-12-11 13:11:00,29.0,21.0,30.40,SE,135,0.0,2.0,73,0.00,,,0.00,,2013-12-11 20:11:00,
2013-12-11 13:22:00,29.0,21.0,30.40,South,180,1.0,4.0,72,0.00,,,0.00,,2013-12-11 20:22:00,
2013-12-11 13:42:00,29.0,21.0,30.39,South,180,2.0,4.0,72,0.00,,,0.00,,2013-12-11 20:42:00,
2013-12-11 13:52:00,29.0,21.0,30.39,SE,135,2.0,4.0,72,0.00,,,0.00,,2013-12-11 20:52:00,
2013-12-11 14:11:00,29.0,21.0,30.38,NE,45,2.0,3.0,72,0.00,,,0.00,,2013-12-11 21:11:00,
2013-12-11 14:22:00,29.0,21.0,30.37,North,0,3.0,7.0,72,0.00,,,0.00,,2013-12-11 21:22:00,
2013-12-11 14:43:00,29.0,21.0,30.37,South,180,2.0,5.0,72,0.00,,,0.00,,2013-12-11 21:43:00,
2013-12-11 14:53:00,29.0,21.0,30.37,South,180,0.0,4.0,72,0.00,,,0.00,,2013-12-11 21:53:00,
2013-12-11 15:13:00,28.0,20.0,30.37,East,90,1.0,8.0,72,0.00,,,0.00,,2013-12-11 22:13:00,
2013-12-11 15:23:00,28.0,20.0,30.37,South,180,2.0,11.0,72,0.00,,,0.00,,2013-12-11 22:23:00,
2013-12-11 15:42:00,28.0,20.0,30.37,SE,135,0.0,3.0,73,0.00,,,0.00,,2013-12-11 22:42:00,
2013-12-11 15:53:00,27.0,20.0,30.37,SW,225,2.0,11.0,73,0.00,,,0.00,,2013-12-11 22:53:00,
2013-12-11 16:12:00,27.0,20.0,30.37,SE,135,1.0,4.0,74,0.00,,,0.00,,2013-12-11 23:12:00,
2013-12-11 16:22:00,27.0,20.0,30.36,SE,135,0.0,4.0,74,0.00,,,0.00,,2013-12-11 23:22:00,
2013-12-11 16:42:00,27.0,20.0,30.36,SE,135,0.0,5.0,75,0.00,,,0.00,,2013-12-11 23:42:00,
2013-12-11 16:52:00,27.0,20.0,30.36,SE,135,0.0,5.0,75,0.00,,,0.00,,2013-12-11 23:52:00,
2013-12-11 17:11:00,27.0,20.0,30.36,SW,225,0.0,11.0,75,0.00,,,0.00,,2013-12-12 00:11:00,
2013-12-11 17:21:00,27.0,20.0,30.35,SE,135,1.0,6.0,75,0.00,,,0.00,,2013-12-12 00:21:00,
2013-12-11 17:42:00,27.0,20.0,30.35,SW,225,2.0,5.0,76,0.00,,,0.00,,2013-12-12 00:42:00,
2013-12-11 17:52:00,27.0,20.0,30.35,South,180,2.0,5.0,76,0.00,,,0.00,,2013-12-12 00:52:00,
2013-12-11 18:11:00,27.0,20.0,30.35,South,180,3.0,5.0,76,0.00,,,0.00,,2013-12-12 01:11:00,
2013-12-11 18:22:00,27.0,20.0,30.35,North,0,3.0,6.0,76,0.00,,,0.00,,2013-12-12 01:22:00,
2013-12-11 18:42:00,26.0,20.0,30.35,SE,135,0.0,2.0,77,0.00,,,0.00,,2013-12-12 01:42:00,
2013-12-11 18:52:00,27.0,21.0,30.34,SW,225,0.0,2.0,77,0.00,,,0.00,,2013-12-12 01:52:00,
2013-12-11 19:11:00,27.0,21.0,30.35,NW,315,0.0,7.0,78,0.00,,,0.00,,2013-12-12 02:11:00,
2013-12-11 19:21:00,26.0,20.0,30.34,SE,135,1.0,2.0,78,0.00,,,0.00,,2013-12-12 02:21:00,
2013-12-11 20:11:00,27.0,21.0,30.32,West,270,0.0,2.0,79,0.00,,,0.00,,2013-12-12 03:11:00,
2013-12-11 20:22:00,27.0,21.0,30.32,NE,45,2.0,4.0,78,0.00,,,0.00,,2013-12-12 03:22:00,
2013-12-11 20:43:00,27.0,21.0,30.32,North,0,0.0,3.0,79,0.00,,,0.00,,2013-12-12 03:43:00,
2013-12-11 20:53:00,27.0,21.0,30.32,East,90,1.0,3.0,79,0.00,,,0.00,,2013-12-12 03:53:00,
2013-12-11 21:13:00,27.0,21.0,30.32,South,180,0.0,2.0,79,0.00,,,0.00,,2013-12-12 04:13:00,
2013-12-11 21:23:00,27.0,22.0,30.32,South,180,0.0,2.0,80,0.00,,,0.00,,2013-12-12 04:23:00,
2013-12-11 21:43:00,26.0,21.0,30.32,West,270,2.0,4.0,81,0.00,,,0.00,,2013-12-12 04:43:00,
2013-12-11 21:53:00,26.0,21.0,30.32,SE,135,1.0,2.0,81,0.00,,,0.00,,2013-12-12 04:53:00,
2013-12-11 22:12:00,26.0,21.0,30.32,SE,135,0.0,2.0,82,0.00,,,0.00,,2013-12-12 05:12:00,
2013-12-11 22:22:00,26.0,22.0,30.32,NE,45,1.0,2.0,83,0.00,,,0.00,,2013-12-12 05:22:00,
2013-12-11 22:43:00,26.0,22.0,30.32,South,180,1.0,2.0,83,0.00,,,0.00,,2013-12-12 05:43:00,
2013-12-11 22:53:00,26.0,22.0,30.32,SE,135,1.0,2.0,84,0.00,,,0.00,,2013-12-12 05:53:00,
2013-12-11 23:12:00,26.0,22.0,30.32,South,180,1.0,2.0,84,0.00,,,0.00,,2013-12-12 06:12:00,
2013-12-11 23:22:00,26.0,22.0,30.32,South,180,1.0,4.0,85,0.00,,,0.00,,2013-12-12 06:22:00,
2013-12-11 23:43:00,26.0,22.0,30.32,South,180,1.0,2.0,85,0.00,,,0.00,,2013-12-12 06:43:00,
2013-12-11 23:52:00,26.0,22.0,30.32,SE,135,0.0,2.0,86,0.00,,,0.00,,2013-12-12 06:52:00,